SL-12 R/B(AUX MOTOR), 19755

Orbit data source: Space-Track

SL-12 R/B(AUX MOTOR), 19755 is space debris in HEO originally from a launch on Tue, 10 Jan 1989 UTC launched from the Tyuratam Missile And Space Complex (TTMTR). Debris objects in space refer to the collection of defunct objects orbiting the Earth. Examples of debris include non-operational satellites, rocket bodies, and fragments generated from explosions, collisions, or faulty payload assembly.

Loading next visibility...
Identifier
19755, 1989-001G
Orbit
HEO
Country
Flag of CISCIS
Related business
Manufacturer
NPO Energiya
Mission
Spacecraft
Bus & Motor
SOZ, Unknown motor
Mass
Wet unknown, ~60 kg dry
Launch date (UTC)
1989-01-10 (38 years ago)
Launch vehicle
Unknown
Launch site
Tyuratam Missile And Space Complex (TTMTR)
Object type
Payload
Rocket body
Debris
Shape & HBR
Cyl, 0.6 m
Radar Cross Section
0.660 m², Medium (>0.1 m² and < 1m²)

Expand to show TLE details & history
Last TLE update: 1 day ago

TLE from 1 day ago
0 SL-12 R/B(AUX MOTOR)
1 19755U 89001G   26253.51024233 -.00000074  00000-0 -29794-3 0  9990
2 19755  65.2460 340.7993 5557945  72.6371 338.7800  4.25604598584743
Epoch: 2026-09-10T12:14Z
TLE epoch observation values (Epoch: 2026-09-10T12:14:44.937Z)
Latitude
-0°
Longitude
167.57384°
Altitude
3,153.18 km
Speed
7.673 km/s
True Right ascension
22h 43m 13s
True Declination
0° 00' 00"
Sunlit
Object was in full shadow at epoch
Visualization orbit readout
Latitude
Unknown
Longitude
Unknown
Altitude
Unknown
Speed
Unknown
Apparent Right ascension
Unknown
Apparent Declination
Unknown
Sunlit
N/A
Visualization observer readout
Local Sidereal Time
04:28:49
Azimuth
Unknown
Elevation
Unknown
Doppler factor
Unknown
Orbital elements
Apogee altitude
18,643.725 km
Perigee altitude
766.026 km
Semi-major axis
16,083.013 km
Eccentricity
0.55579
Inclination
65.246°
RAAN
340.7993°
Arg. of periapsis
72.6371°
True anomaly
287.35162°
Mean anomaly
338.78°
Eccentric anomaly
317.10449°
Mean motion
1.06412 °/min
Orbital period
338.31 mins
BSTAR
-0.00029794
Loading maneuver chart data...
Computing Atmospheric mass density...

Documentation

Showing up to 5 results
|